Weather History for KHEI - October, 2012

Change the Weather History Date:

Monday, October 15, 2012

  Actual Average Record
Temperature  
Mean Temperature 63 °F -  
Max Temperature 77 °F 57 °F 79 °F (2010)
Min Temperature 49 °F 30 °F 15 °F (2001)
Degree Days  
Heating Degree Days 2 22  
Month to date heating degree days 314 282  
Since 1 July heating degree days 595 653  
Cooling Degree Days 0 0  
Month to date cooling degree days 0 0  
Year to date cooling degree days 581 376  
Growing Degree Days 12 (Base 50)    
Moisture  
Dew Point 36 °F    
Average Humidity 44    
Maximum Humidity 89    
Minimum Humidity 21    
Precipitation  
Precipitation T in 0.05 in 0.36 in (1998)
Month to date precipitation 0.20 0.47  
Year to date precipitation 14.00 14.39  
Sea Level Pressure  
Sea Level Pressure 29.74 in    
Wind  
Wind Speed 10 mph (West)    
Max Wind Speed 23 mph    
Max Gust Speed 30 mph    
Visibility 10 miles    
Events Rain    
T = Trace of Precipitation, MM = Missing Value Source: NWS Daily Summary

Daily Weather History Graph

Daily Weather History Graph

Search for Another Location

Airport or City:

Trip Planner

Search our weather history database for the weather conditions in past years. The results will help you decide how hot, cold, wet, or windy it might be!

Date:

Astronomy

Oct. 15, 2012 Rise Set
Actual Time 7:08 AM MDT 6:03 PM MDT
Civil Twilight 6:38 AM MDT 6:33 PM MDT
Nautical Twilight 6:03 AM MDT 7:08 PM MDT
Astronomical Twilight 5:28 AM MDT 7:42 PM MDT
Moon 7:24 AM MDT (10/15) 5:59 PM MDT (10/15)
Length of Visible Light 11h 55m
Length of Day
10h 55m
New Moon, 0% of the Moon is Illuminated
Oct 15
New Moon
Oct 21
First Quarter
Oct 29
Full
Nov 6
Last Quarter
Nov 13
New

Hourly Weather History & Observations

Time (MDT) Temp. Dew Point Humidity Pressure Visibility Wind Dir Wind Speed Gust Speed Precip Events Conditions
12:53 AM 48.0 °F 33.1 °F 56% 29.88 in 10.0 mi Calm Calm - N/A   Mostly Cloudy
1:53 AM 50.0 °F 33.1 °F 52% 29.85 in 10.0 mi Calm Calm - N/A   Mostly Cloudy
2:53 AM 51.1 °F 33.1 °F 50% 29.81 in 10.0 mi South 4.6 mph - N/A   Partly Cloudy
3:53 AM 51.1 °F 33.1 °F 50% 29.81 in 10.0 mi SW 3.5 mph - N/A   Clear
4:53 AM 52.0 °F 33.1 °F 49% 29.78 in 10.0 mi South 5.8 mph - N/A   Clear
5:53 AM 52.0 °F 32.0 °F 47% 29.78 in 10.0 mi Calm Calm - N/A   Clear
6:53 AM 53.1 °F 30.9 °F 43% 29.78 in 10.0 mi WSW 3.5 mph - N/A   Clear
7:53 AM 51.1 °F 30.9 °F 46% 29.79 in 10.0 mi WNW 3.5 mph - N/A   Clear
8:53 AM 57.0 °F 30.9 °F 37% 29.79 in 10.0 mi West 10.4 mph - N/A   Clear
9:53 AM 64.9 °F 30.9 °F 28% 29.76 in 10.0 mi WNW 16.1 mph - N/A   Clear
10:53 AM 71.1 °F 32.0 °F 24% 29.74 in 10.0 mi West 13.8 mph - N/A   Clear
11:53 AM 75.0 °F 33.1 °F 22% 29.72 in 10.0 mi West 16.1 mph 23.0 mph N/A   Clear
12:53 PM 75.0 °F 32.0 °F 21% 29.69 in 10.0 mi West 13.8 mph - N/A   Clear
1:53 PM 73.9 °F 32.0 °F 21% 29.67 in 10.0 mi West 16.1 mph 23.0 mph N/A   Clear
2:53 PM 75.0 °F 33.1 °F 22% 29.66 in 10.0 mi WNW 17.3 mph 24.2 mph N/A   Clear
3:53 PM 71.1 °F 33.1 °F 25% 29.66 in 10.0 mi WNW 11.5 mph - N/A   Overcast
4:53 PM 66.9 °F 35.1 °F 31% 29.68 in 10.0 mi West 10.4 mph - N/A   Partly Cloudy
5:53 PM 66.0 °F 36.0 °F 33% 29.70 in 10.0 mi WNW 13.8 mph - N/A   Overcast
6:53 PM 63.0 °F 41.0 °F 45% 29.71 in 10.0 mi WNW 15.0 mph - N/A   Overcast
7:53 PM 60.1 °F 42.1 °F 51% 29.72 in 10.0 mi WNW 10.4 mph - 0.00 in   Overcast
8:53 PM 59.0 °F 43.0 °F 55% 29.72 in 10.0 mi West 9.2 mph - N/A   Overcast
9:53 PM 55.0 °F 46.9 °F 74% 29.71 in 10.0 mi WNW 9.2 mph - 0.00 in Rain Light Rain
10:53 PM 53.1 °F 48.0 °F 83% 29.69 in 10.0 mi WNW 11.5 mph - 0.00 in   Overcast
11:53 PM 52.0 °F 48.0 °F 86% 29.68 in 10.0 mi WNW 8.1 mph - N/A   Mostly Cloudy